Location: Ellingshausen
(50.5460°N, 10.4723°E)
Time: 00:12:14
(UTC+00:00)

Cosmos 1833 - Pass Details

Date: 18 January 2026
Orbit: 831 x 867 km, 70.9° (Epoch: 17 February)

Event Time Altitude Azimuth Distance (km) Brightness Sun altitude
Exits shadow 06:21:36 - 330° (NNW) 3,244 6.8 -7.7°
Reaches altitude 10° 06:23:31 10° 331° (NNW) 2,522 6.2 -7.4°
Maximum altitude 06:29:20 82° 59° (ENE) 881 4.4 -6.6°
Drops below altitude 10° 06:35:07 10° 148° (SSE) 2,498 7.7 -5.7°
Sets 06:37:34 0° 150° (SSE) 3,428 8.4 -5.4°
